| time (UTC) | temp F | wind direction | speed MPH | gust MPH | rain 1hr in | rain 24hr in | rain mn in | humidity % | barometer mb |
| 20260505194202 | 52 | 38 | 0.0 | 0.0 | 0.00 | 0.32 | 0.12 | 96 | 1009.6 |
| 20260505193700 | 52 | 38 | 0.0 | 0.0 | 0.00 | 0.32 | 0.12 | 96 | 1009.5 |
| 20260505192659 | 52 | 38 | 0.0 | 0.0 | 0.00 | 0.32 | 0.12 | 96 | 1009.4 |
| 20260505192158 | 52 | 38 | 0.0 | 0.0 | 0.00 | 0.32 | 0.12 | 96 | 1009.4 |
| 20260505191148 | 52 | 38 | 0.0 | 0.0 | 0.00 | 0.32 | 0.12 | 96 | 1009.2 |
| 20260505190642 | 52 | 38 | 0.0 | 0.0 | 0.00 | 0.32 | 0.12 | 96 | 1009.3 |
| 20260505190140 | 52 | 38 | 0.0 | 0.0 | 0.00 | 0.32 | 0.12 | 96 | 1009.3 |
| 20260505185638 | 52 | 38 | 0.0 | 0.0 | 0.00 | 0.32 | 0.12 | 96 | 1009.3 |
| 20260505185136 | 52 | 38 | 0.0 | 0.0 | 0.00 | 0.32 | 0.12 | 96 | 1009.3 |
| 20260505184637 | 52 | 38 | 0.0 | 0.0 | 0.00 | 0.32 | 0.12 | 96 | 1009.4 |
| 20260505184134 | 52 | 38 | 0.0 | 0.0 | 0.00 | 0.32 | 0.12 | 96 | 1009.2 |
| 20260505183634 | 52 | 38 | 0.0 | 0.0 | 0.00 | 0.32 | 0.12 | 96 | 1009.2 |
| 20260505183130 | 52 | 38 | 0.0 | 0.0 | 0.00 | 0.32 | 0.12 | 95 | 1009.3 |
| 20260505182631 | 52 | 38 | 0.0 | 0.0 | 0.00 | 0.32 | 0.12 | 95 | 1009.2 |
| 20260505182130 | 52 | 38 | 0.0 | 0.0 | 0.00 | 0.32 | 0.12 | 95 | 1009.3 |
| 20260505181630 | 52 | 38 | 0.0 | 0.0 | 0.00 | 0.33 | 0.12 | 95 | 1009.3 |
| 20260505180630 | 52 | 39 | 0.0 | 0.0 | 0.00 | 0.33 | 0.12 | 95 | 1009.3 |
| 20260505180131 | 52 | 37 | 0.0 | 0.0 | 0.00 | 0.34 | 0.12 | 96 | 1009.4 |
| 20260505175631 | 52 | 34 | 0.0 | 0.0 | 0.00 | 0.34 | 0.12 | 96 | 1009.3 |
| 20260505175130 | 52 | 34 | 0.0 | 0.0 | 0.00 | 0.35 | 0.12 | 96 | 1009.2 |
| 20260505174126 | 52 | 35 | 0.0 | 0.0 | 0.01 | 0.35 | 0.12 | 96 | 1009.3 |
| 20260505173625 | 52 | 34 | 0.0 | 0.0 | 0.01 | 0.36 | 0.12 | 96 | 1009.3 |
| 20260505173124 | 52 | 34 | 0.0 | 0.0 | 0.01 | 0.36 | 0.12 | 96 | 1009.4 |
| 20260505172624 | 52 | 32 | 0.0 | 0.0 | 0.01 | 0.37 | 0.12 | 96 | 1009.3 |
| 20260505172124 | 52 | 32 | 0.0 | 0.0 | 0.01 | 0.39 | 0.12 | 97 | 1009.3 |
| 20260505171624 | 53 | 33 | 0.0 | 0.0 | 0.01 | 0.39 | 0.12 | 97 | 1009.4 |
| 20260505171124 | 52 | 32 | 0.0 | 0.0 | 0.01 | 0.41 | 0.12 | 97 | 1009.3 |
| 20260505170623 | 52 | 32 | 0.0 | 0.0 | 0.01 | 0.43 | 0.12 | 97 | 1009.4 |
| 20260505170124 | 52 | 31 | 0.0 | 0.0 | 0.01 | 0.45 | 0.12 | 97 | 1009.4 |
| 20260505165122 | 52 | 31 | 0.0 | 0.0 | 0.01 | 0.46 | 0.12 | 97 | 1009.4 |
| 20260505164622 | 52 | 32 | 0.0 | 0.0 | 0.01 | 0.46 | 0.12 | 97 | 1009.4 |
| 20260505164122 | 52 | 28 | 0.0 | 0.0 | 0.00 | 0.46 | 0.11 | 97 | 1009.4 |
| 20260505163620 | 52 | 28 | 0.0 | 5.0 | 0.00 | 0.46 | 0.11 | 97 | 1009.4 |
| 20260505163120 | 53 | 33 | 1.0 | 8.0 | 0.00 | 0.46 | 0.11 | 97 | 1009.4 |
| 20260505162620 | 53 | 13 | 0.0 | 8.0 | 0.00 | 0.46 | 0.11 | 98 | 1009.5 |
| 20260505162120 | 53 | 29 | 0.0 | 0.0 | 0.00 | 0.46 | 0.11 | 98 | 1009.5 |
| 20260505161120 | 53 | 19 | 1.0 | 8.0 | 0.00 | 0.46 | 0.11 | 98 | 1009.5 |
| 20260505160620 | 53 | 15 | 0.0 | 8.0 | 0.00 | 0.46 | 0.11 | 98 | 1009.6 |
| 20260505160120 | 53 | 5 | 0.0 | 5.0 | 0.00 | 0.46 | 0.11 | 98 | 1009.6 |
| 20260505153116 | 53 | 39 | 0.0 | 4.0 | 0.00 | 0.46 | 0.11 | 97 | 1009.8 |
| 20260505152616 | 53 | 42 | 0.0 | 4.0 | 0.00 | 0.46 | 0.11 | 96 | 1009.7 |
| 20260505152115 | 53 | 43 | 0.0 | 5.0 | 0.00 | 0.46 | 0.11 | 96 | 1009.9 |
| 20260505151616 | 53 | 44 | 0.0 | 5.0 | 0.00 | 0.46 | 0.11 | 96 | 1010.0 |
| 20260505151116 | 53 | 49 | 0.0 | 4.0 | 0.00 | 0.46 | 0.11 | 96 | 1009.9 |
| 20260505150615 | 53 | 51 | 0.0 | 4.0 | 0.00 | 0.46 | 0.11 | 96 | 1009.9 |
| 20260505150115 | 53 | 54 | 0.0 | 6.0 | 0.00 | 0.46 | 0.11 | 96 | 1010.0 |
| 20260505140607 | 53 | 5 | 0.0 | 6.0 | 0.00 | 0.46 | 0.11 | 97 | 1010.2 |
| 20260505140108 | 53 | 44 | 0.0 | 0.0 | 0.00 | 0.46 | 0.11 | 98 | 1010.3 |
| 20260505130103 | 52 | 39 | 0.0 | 7.0 | 0.00 | 0.46 | 0.11 | 98 | 1010.6 |
| 20260505124602 | 52 | 82 | 0.0 | 4.0 | 0.00 | 0.46 | 0.11 | 98 | 1010.6 |
| 20260505124102 | 52 | 81 | 0.0 | 6.0 | 0.00 | 0.46 | 0.11 | 98 | 1010.6 |
| 20260505123602 | 52 | 78 | 0.0 | 6.0 | 0.00 | 0.46 | 0.11 | 98 | 1010.6 |
| 20260505123103 | 52 | 89 | 0.0 | 9.0 | 0.01 | 0.46 | 0.11 | 98 | 1010.9 |
| 20260505122601 | 52 | 85 | 0.0 | 9.0 | 0.01 | 0.46 | 0.11 | 98 | 1010.7 |
| 20260505122059 | 52 | 336 | 0.0 | 7.0 | 0.01 | 0.46 | 0.11 | 98 | 1010.6 |
| 20260505121558 | 52 | 78 | 0.0 | 7.0 | 0.01 | 0.46 | 0.11 | 98 | 1010.8 |
| 20260505120557 | 52 | 78 | 1.0 | 7.0 | 0.01 | 0.46 | 0.11 | 99 | 1010.7 |
| 20260505120056 | 52 | 5 | 0.0 | 6.0 | 0.02 | 0.46 | 0.11 | 99 | 1010.6 |
| 20260505115555 | 52 | 5 | 0.0 | 5.0 | 0.02 | 0.46 | 0.11 | 99 | 1010.5 |
| 20260505114555 | 51 | 16 | 0.0 | 9.0 | 0.02 | 0.46 | 0.11 | 99 | 1010.7 |
| 20260505114053 | 52 | 39 | 0.0 | 3.0 | 0.02 | 0.46 | 0.11 | 99 | 1010.7 |
| 20260505113552 | 52 | 29 | 0.0 | 5.0 | 0.02 | 0.46 | 0.11 | 99 | 1010.8 |
| 20260505113052 | 51 | 26 | 0.0 | 5.0 | 0.01 | 0.45 | 0.10 | 99 | 1010.8 |
| 20260505112555 | 51 | 40 | 0.0 | 3.0 | 0.01 | 0.45 | 0.10 | 99 | 1010.9 |
| 20260505111548 | 51 | 90 | 0.0 | 6.0 | 0.01 | 0.45 | 0.10 | 99 | 1010.8 |
| 20260505111049 | 51 | 355 | 0.0 | 3.0 | 0.01 | 0.45 | 0.10 | 99 | 1010.9 |
| 20260505110549 | 51 | 351 | 0.0 | 3.0 | 0.01 | 0.45 | 0.10 | 99 | 1010.9 |
| 20260505101545 | 51 | 5 | 0.0 | 4.0 | 0.00 | 0.44 | 0.09 | 98 | 1011.0 |
| 20260505100544 | 51 | 11 | 1.0 | 7.0 | 0.00 | 0.44 | 0.09 | 98 | 1011.0 |
| 20260505095541 | 51 | 20 | 0.0 | 8.0 | 0.00 | 0.44 | 0.09 | 98 | 1011.0 |
| 20260505095041 | 51 | 23 | 0.0 | 8.0 | 0.00 | 0.44 | 0.09 | 98 | 1010.9 |
| 20260505094541 | 51 | 71 | 0.0 | 8.0 | 0.00 | 0.44 | 0.09 | 98 | 1010.9 |
| 20260505094039 | 51 | 0 | 0.0 | 8.0 | 0.00 | 0.44 | 0.09 | 99 | 1011.0 |
| 20260505093539 | 51 | 60 | 0.0 | 6.0 | 0.00 | 0.44 | 0.09 | 98 | 1011.1 |
| 20260505092539 | 51 | 39 | 0.0 | 4.0 | 0.00 | 0.44 | 0.09 | 99 | 1011.3 |
| 20260505092039 | 51 | 16 | 0.0 | 6.0 | 0.00 | 0.44 | 0.09 | 99 | 1011.1 |
| 20260505091539 | 51 | 0 | 0.0 | 6.0 | 0.00 | 0.44 | 0.09 | 99 | 1011.1 |
| 20260505091041 | 51 | 25 | 0.0 | 7.0 | 0.00 | 0.44 | 0.09 | 99 | 1011.0 |
| 20260505090539 | 51 | 18 | 1.0 | 7.0 | 0.00 | 0.44 | 0.09 | 99 | 1011.0 |
| 20260505090037 | 51 | 0 | 0.0 | 6.0 | 0.00 | 0.44 | 0.09 | 99 | 1010.9 |
| 20260505085033 | 51 | 18 | 0.0 | 3.0 | 0.00 | 0.44 | 0.09 | 99 | 1011.2 |
| 20260505084533 | 51 | 55 | 0.0 | 0.0 | 0.00 | 0.44 | 0.09 | 99 | 1011.2 |
| 20260505084031 | 51 | 57 | 1.0 | 8.0 | 0.00 | 0.44 | 0.09 | 100 | 1011.2 |
| 20260505083531 | 51 | 22 | 0.0 | 8.0 | 0.00 | 0.44 | 0.09 | 99 | 1011.1 |
| 20260505082530 | 51 | 38 | 0.0 | 4.0 | 0.00 | 0.44 | 0.09 | 100 | 1011.2 |
| 20260505081530 | 51 | 16 | 0.0 | 6.0 | 0.00 | 0.44 | 0.09 | 100 | 1011.0 |
| 20260505081031 | 51 | 11 | 0.0 | 6.0 | 0.00 | 0.44 | 0.09 | 100 | 1011.2 |
| 20260505080529 | 51 | 20 | 1.0 | 6.0 | 0.00 | 0.44 | 0.09 | 100 | 1011.1 |
| 20260505080030 | 51 | 22 | 1.0 | 6.0 | 0.00 | 0.44 | 0.09 | 100 | 1011.1 |
| 20260505075530 | 51 | 0 | 0.0 | 8.0 | 0.00 | 0.44 | 0.09 | 100 | 1011.1 |
| 20260505074530 | 51 | 13 | 0.0 | 0.0 | 0.00 | 0.44 | 0.09 | 100 | 1011.1 |
| 20260505074030 | 51 | 11 | 0.0 | 7.0 | 0.00 | 0.44 | 0.09 | 100 | 1011.2 |
| 20260505073030 | 51 | 9 | 0.0 | 7.0 | 0.00 | 0.44 | 0.09 | 100 | 1011.1 |
| 20260505072530 | 51 | 16 | 1.0 | 8.0 | 0.00 | 0.44 | 0.09 | 100 | 1011.3 |
| 20260505072030 | 51 | 26 | 2.0 | 10.0 | 0.00 | 0.44 | 0.09 | 100 | 1011.3 |
| 20260505071533 | 51 | 15 | 1.0 | 10.0 | 0.00 | 0.44 | 0.09 | 100 | 1011.2 |
| 20260505071031 | 51 | 5 | 0.0 | 3.0 | 0.00 | 0.44 | 0.09 | 100 | 1011.2 |
| 20260505070529 | 51 | 24 | 0.0 | 8.0 | 0.00 | 0.44 | 0.09 | 100 | 1011.1 |
| 20260505070031 | 51 | 23 | 0.0 | 8.0 | 0.00 | 0.44 | 0.09 | 100 | 1011.2 |
| 20260505065030 | 51 | 18 | 0.0 | 0.0 | 0.00 | 0.44 | 0.09 | 100 | 1011.3 |
| 20260505064031 | 51 | 16 | 0.0 | 7.0 | 0.00 | 0.44 | 0.09 | 100 | 1011.3 |
| 20260505063530 | 51 | 15 | 0.0 | 6.0 | 0.00 | 0.44 | 0.09 | 100 | 1011.3 |
| 20260505063031 | 51 | 11 | 0.0 | 6.0 | 0.00 | 0.44 | 0.09 | 100 | 1011.3 |
| 20260505062531 | 51 | 19 | 0.0 | 0.0 | 0.00 | 0.44 | 0.09 | 100 | 1011.2 |
| 20260505062031 | 51 | 17 | 0.0 | 0.0 | 0.00 | 0.44 | 0.09 | 100 | 1011.4 |
| 20260505061534 | 52 | 13 | 0.0 | 0.0 | 0.00 | 0.44 | 0.09 | 100 | 1011.3 |
| 20260505061031 | 52 | 13 | 0.0 | 3.0 | 0.00 | 0.44 | 0.09 | 100 | 1011.3 |
| 20260505060528 | 52 | 13 | 0.0 | 3.0 | 0.00 | 0.44 | 0.09 | 99 | 1011.3 |
| 20260505060023 | 52 | 11 | 0.0 | 0.0 | 0.00 | 0.44 | 0.09 | 99 | 1011.4 |
| 20260505055521 | 52 | 11 | 0.0 | 0.0 | 0.00 | 0.44 | 0.09 | 99 | 1011.4 |
| 20260505055021 | 52 | 11 | 0.0 | 0.0 | 0.00 | 0.44 | 0.09 | 100 | 1011.3 |
| 20260505054519 | 52 | 14 | 0.0 | 0.0 | 0.00 | 0.44 | 0.09 | 99 | 1011.3 |
| 20260505054020 | 52 | 14 | 0.0 | 0.0 | 0.00 | 0.44 | 0.09 | 99 | 1011.4 |
| 20260505053519 | 52 | 17 | 0.0 | 7.0 | 0.00 | 0.44 | 0.09 | 99 | 1011.2 |
| 20260505053017 | 52 | 17 | 0.0 | 7.0 | 0.00 | 0.44 | 0.09 | 99 | 1011.1 |
| 20260505052517 | 52 | 24 | 0.0 | 5.0 | 0.00 | 0.44 | 0.09 | 99 | 1011.2 |
| 20260505052017 | 52 | 22 | 0.0 | 8.0 | 0.00 | 0.44 | 0.09 | 99 | 1011.1 |
| 20260505051519 | 52 | 26 | 0.0 | 8.0 | 0.00 | 0.44 | 0.09 | 99 | 1010.9 |
| 20260505051017 | 53 | 19 | 0.0 | 7.0 | 0.00 | 0.44 | 0.09 | 99 | 1011.1 |
| 20260505041509 | 53 | 20 | 0.0 | 0.0 | 0.00 | 0.44 | 0.09 | 99 | 1011.2 |
| 20260505041005 | 53 | 20 | 0.0 | 0.0 | 0.00 | 0.44 | 0.09 | 99 | 1011.3 |
| 20260505040020 | 53 | 19 | 0.0 | 0.0 | 0.00 | 0.44 | 0.09 | 99 | 1011.2 |
| 20260505035002 | 53 | 19 | 0.0 | 0.0 | 0.00 | 0.44 | 0.09 | 99 | 1011.1 |
| 20260505034509 | 53 | 19 | 0.0 | 0.0 | 0.00 | 0.44 | 0.09 | 99 | 1011.1 |
| 20260505034001 | 53 | 19 | 0.0 | 0.0 | 0.00 | 0.44 | 0.09 | 99 | 1011.1 |
| 20260505033501 | 54 | 18 | 0.0 | 0.0 | 0.00 | 0.44 | 0.09 | 99 | 1011.2 |
| 20260505033001 | 53 | 18 | 0.0 | 0.0 | 0.00 | 0.44 | 0.09 | 99 | 1011.2 |
| 20260505032501 | 54 | 17 | 0.0 | 0.0 | 0.00 | 0.44 | 0.09 | 99 | 1011.2 |
| 20260505032001 | 54 | 17 | 0.0 | 0.0 | 0.00 | 0.44 | 0.09 | 99 | 1011.1 |
| 20260505030459 | 54 | 5 | 0.0 | 0.0 | 0.00 | 0.44 | 0.09 | 99 | 1011.2 |
| 20260505025957 | 54 | 5 | 0.0 | 4.0 | 0.00 | 0.44 | 0.09 | 99 | 1011.1 |
| 20260505025456 | 54 | 5 | 0.0 | 5.0 | 0.00 | 0.44 | 0.09 | 99 | 1011.0 |
| 20260505024954 | 54 | 19 | 0.0 | 5.0 | 0.00 | 0.44 | 0.09 | 99 | 1011.1 |
| 20260505024455 | 54 | 18 | 0.0 | 7.0 | 0.00 | 0.44 | 0.09 | 99 | 1011.2 |
| 20260505023453 | 54 | 15 | 0.0 | 3.0 | 0.00 | 0.44 | 0.09 | 99 | 1011.3 |
| 20260505022953 | 54 | 14 | 0.0 | 6.0 | 0.00 | 0.44 | 0.09 | 99 | 1011.2 |
| 20260505022451 | 54 | 20 | 0.0 | 6.0 | 0.00 | 0.44 | 0.09 | 99 | 1011.2 |
| 20260505021948 | 54 | 15 | 0.0 | 7.0 | 0.00 | 0.44 | 0.09 | 99 | 1011.3 |
| 20260505020947 | 54 | 18 | 1.0 | 10.0 | 0.00 | 0.44 | 0.09 | 99 | 1011.3 |
| 20260505020447 | 54 | 340 | 1.0 | 9.0 | 0.00 | 0.44 | 0.09 | 99 | 1011.3 |
| 20260505015444 | 55 | 349 | 0.0 | 5.0 | 0.00 | 0.44 | 0.09 | 99 | 1011.3 |
| 20260505014945 | 55 | 15 | 0.0 | 5.0 | 0.00 | 0.44 | 0.09 | 99 | 1011.4 |
| 20260505014447 | 55 | 22 | 0.0 | 10.0 | 0.00 | 0.44 | 0.09 | 99 | 1011.3 |
| 20260505013943 | 55 | 21 | 1.0 | 10.0 | 0.00 | 0.44 | 0.09 | 99 | 1011.3 |
| 20260505013445 | 55 | 26 | 1.0 | 8.0 | 0.00 | 0.44 | 0.09 | 99 | 1011.2 |
| 20260505012944 | 55 | 16 | 0.0 | 8.0 | 0.00 | 0.44 | 0.09 | 99 | 1011.1 |
| 20260505012443 | 55 | 19 | 1.0 | 9.0 | 0.00 | 0.44 | 0.09 | 99 | 1011.3 |
| 20260505011940 | 55 | 22 | 1.0 | 9.0 | 0.00 | 0.44 | 0.09 | 99 | 1011.3 |
| 20260505011439 | 55 | 16 | 0.0 | 7.0 | 0.00 | 0.44 | 0.09 | 99 | 1011.3 |
| 20260505010939 | 56 | 15 | 0.0 | 5.0 | 0.00 | 0.44 | 0.09 | 99 | 1011.3 |
| 20260505010438 | 56 | 17 | 0.0 | 5.0 | 0.00 | 0.44 | 0.09 | 99 | 1011.6 |
| 20260505005939 | 56 | 13 | 0.0 | 7.0 | 0.00 | 0.44 | 0.09 | 99 | 1011.6 |
| 20260505005436 | 56 | 15 | 0.0 | 7.0 | 0.00 | 0.44 | 0.09 | 99 | 1011.6 |
| 20260505004936 | 56 | 22 | 0.0 | 8.0 | 0.00 | 0.44 | 0.09 | 99 | 1011.5 |
| 20260505004436 | 56 | 20 | 0.0 | 8.0 | 0.00 | 0.44 | 0.09 | 99 | 1011.6 |
| 20260505003936 | 56 | 19 | 0.0 | 9.0 | 0.00 | 0.44 | 0.09 | 99 | 1011.6 |
| 20260505002934 | 56 | 16 | 0.0 | 4.0 | 0.00 | 0.44 | 0.09 | 99 | 1011.6 |
| 20260505002435 | 56 | 15 | 1.0 | 10.0 | 0.00 | 0.44 | 0.09 | 99 | 1011.6 |
| 20260505001934 | 56 | 15 | 1.0 | 10.0 | 0.00 | 0.44 | 0.09 | 99 | 1011.7 |
| 20260505000933 | 56 | 30 | 0.0 | 0.0 | 0.00 | 0.44 | 0.09 | 99 | 1011.8 |
| 20260505000432 | 56 | 30 | 0.0 | 0.0 | 0.00 | 0.44 | 0.09 | 99 | 1011.9 |
| 20260504235431 | 56 | 30 | 0.0 | 0.0 | 0.01 | 0.44 | 0.09 | 99 | 1011.8 |
| 20260504234930 | 57 | 31 | 0.0 | 0.0 | 0.02 | 0.44 | 0.09 | 99 | 1011.9 |
| 20260504234430 | 57 | 30 | 0.0 | 0.0 | 0.02 | 0.44 | 0.09 | 99 | 1011.9 |
| 20260504233929 | 57 | 30 | 0.0 | 0.0 | 0.03 | 0.44 | 0.09 | 99 | 1011.9 |
| 20260504233431 | 57 | 30 | 0.0 | 0.0 | 0.03 | 0.44 | 0.09 | 99 | 1011.9 |
| 20260504232931 | 57 | 30 | 0.0 | 0.0 | 0.04 | 0.44 | 0.09 | 99 | 1011.9 |
| 20260504232430 | 57 | 30 | 0.0 | 0.0 | 0.05 | 0.44 | 0.09 | 99 | 1012.0 |
| 20260504231931 | 57 | 30 | 0.0 | 0.0 | 0.06 | 0.44 | 0.09 | 99 | 1011.9 |
| 20260504230930 | 57 | 31 | 0.0 | 0.0 | 0.08 | 0.44 | 0.09 | 99 | 1012.2 |
| 20260504230430 | 57 | 31 | 0.0 | 0.0 | 0.09 | 0.44 | 0.09 | 99 | 1012.1 |
| 20260504225930 | 57 | 31 | 0.0 | 0.0 | 0.09 | 0.43 | 0.09 | 99 | 1012.1 |
| 20260504225433 | 58 | 31 | 0.0 | 0.0 | 0.11 | 0.43 | 0.09 | 99 | 1012.1 |
| 20260504224930 | 57 | 31 | 0.0 | 0.0 | 0.12 | 0.43 | 0.08 | 99 | 1012.2 |
| 20260504223430 | 58 | 31 | 0.0 | 0.0 | 0.19 | 0.41 | 0.06 | 99 | 1012.2 |
| 20260504222930 | 58 | 31 | 0.0 | 0.0 | 0.20 | 0.40 | 0.05 | 99 | 1012.3 |
| 20260504222430 | 58 | 31 | 0.0 | 0.0 | 0.20 | 0.39 | 0.04 | 99 | 1012.2 |
| 20260504221931 | 58 | 31 | 0.0 | 0.0 | 0.20 | 0.39 | 0.03 | 99 | 1012.4 |
| 20260504220617 | 58 | 31 | 0.0 | 0.0 | 0.19 | 0.35 | 0.00 | 99 | 1012.5 |
| 20260504215928 | 58 | 31 | 0.0 | 0.0 | 0.18 | 0.17 | 0.34 | 99 | 1012.5 |
| 20260504215426 | 58 | 31 | 0.0 | 0.0 | 0.16 | 0.17 | 0.32 | 99 | 1012.6 |
| 20260504214923 | 58 | 31 | 0.0 | 0.0 | 0.15 | 0.17 | 0.30 | 99 | 1012.7 |
| 20260504214425 | 58 | 31 | 0.0 | 0.0 | 0.12 | 0.17 | 0.27 | 99 | 1012.7 |
| 20260504213921 | 58 | 31 | 0.0 | 0.0 | 0.09 | 0.17 | 0.24 | 98 | 1012.7 |
| 20260504212422 | 58 | 31 | 0.0 | 0.0 | 0.03 | 0.17 | 0.19 | 99 | 1013.0 |
| 20260504211418 | 58 | 31 | 0.0 | 0.0 | 0.02 | 0.17 | 0.17 | 98 | 1012.9 |
| 20260504210919 | 58 | 31 | 0.0 | 0.0 | 0.02 | 0.17 | 0.17 | 98 | 1013.0 |
| 20260504210419 | 58 | 31 | 0.0 | 0.0 | 0.02 | 0.17 | 0.17 | 98 | 1013.0 |
| 20260504205918 | 58 | 31 | 0.0 | 0.0 | 0.02 | 0.14 | 0.17 | 98 | 1013.0 |
| 20260504204918 | 58 | 31 | 0.0 | 0.0 | 0.02 | 0.14 | 0.16 | 98 | 1013.0 |
| 20260504204418 | 58 | 31 | 0.0 | 0.0 | 0.02 | 0.14 | 0.16 | 98 | 1013.0 |
| 20260504203919 | 58 | 31 | 0.0 | 0.0 | 0.02 | 0.15 | 0.16 | 98 | 1013.0 |
| 20260504203418 | 58 | 32 | 0.0 | 0.0 | 0.02 | 0.15 | 0.16 | 98 | 1013.1 |
| 20260504202918 | 58 | 32 | 0.0 | 0.0 | 0.02 | 0.15 | 0.16 | 98 | 1013.1 |
| 20260504201915 | 58 | 32 | 0.0 | 0.0 | 0.01 | 0.15 | 0.15 | 98 | 1012.9 |
| 20260504200914 | 58 | 32 | 0.0 | 0.0 | 0.00 | 0.15 | 0.14 | 97 | 1012.8 |
| 20260504200414 | 59 | 32 | 0.0 | 0.0 | 0.00 | 0.15 | 0.14 | 97 | 1012.7 |
| 20260504195914 | 59 | 32 | 0.0 | 0.0 | 0.00 | 0.15 | 0.14 | 98 | 1012.7 |
| 20260504195415 | 59 | 32 | 0.0 | 0.0 | 0.00 | 0.15 | 0.14 | 98 | 1012.8 |
| 20260504194914 | 59 | 32 | 0.0 | 0.0 | 0.00 | 0.15 | 0.14 | 97 | 1012.9 |
| 20260504194413 | 59 | 32 | 0.0 | 0.0 | 0.00 | 0.15 | 0.14 | 98 | 1012.7 |